| time (UTC) | temp F | wind direction | speed knots | gust knots | rain 1hr in | rain 24hr in | rain mn in | humidity % | barometer mb |
| 20260508010605 | 30 | 228 | 0.0 | 0.0 | 0.00 | 0.00 | 0.00 | 83 | 1020.9 |
| 20260508010105 | 30 | 228 | 0.0 | 0.0 | 0.00 | 0.00 | 0.00 | 83 | 1020.9 |
| 20260508005605 | 30 | 228 | 0.0 | 0.0 | 0.00 | 0.00 | 0.00 | 83 | 1020.9 |
| 20260508005104 | 30 | 228 | 0.0 | 0.0 | 0.00 | 0.00 | 0.00 | 83 | 1021.0 |
| 20260508004104 | 30 | 228 | 0.0 | 0.0 | 0.00 | 0.00 | 0.00 | 82 | 1020.9 |
| 20260508003604 | 31 | 228 | 0.0 | 0.0 | 0.00 | 0.00 | 0.00 | 82 | 1020.9 |
| 20260508003105 | 31 | 228 | 0.0 | 0.0 | 0.00 | 0.00 | 0.00 | 81 | 1020.9 |
| 20260508002605 | 31 | 228 | 0.0 | 0.0 | 0.00 | 0.00 | 0.00 | 81 | 1020.9 |
| 20260508002104 | 31 | 228 | 0.0 | 0.0 | 0.00 | 0.00 | 0.00 | 82 | 1020.9 |
| 20260508001604 | 31 | 228 | 0.0 | 0.0 | 0.00 | 0.00 | 0.00 | 82 | 1020.9 |
| 20260508001104 | 31 | 228 | 0.0 | 0.0 | 0.00 | 0.00 | 0.00 | 82 | 1020.9 |
| 20260508000604 | 31 | 228 | 0.0 | 0.0 | 0.00 | 0.00 | 0.00 | 83 | 1020.8 |
| 20260507235604 | 31 | 228 | 0.0 | 0.0 | 0.00 | 0.00 | 0.00 | 84 | 1020.8 |
| 20260507235104 | 31 | 228 | 0.0 | 0.0 | 0.00 | 0.00 | 0.00 | 85 | 1020.8 |
| 20260507234605 | 30 | 228 | 0.0 | 0.0 | 0.00 | 0.00 | 0.00 | 85 | 1020.8 |
| 20260507234104 | 30 | 228 | 0.0 | 0.0 | 0.00 | 0.00 | 0.00 | 85 | 1020.8 |
| 20260507233604 | 30 | 228 | 0.0 | 0.0 | 0.00 | 0.00 | 0.00 | 85 | 1020.8 |
| 20260507233105 | 30 | 228 | 0.0 | 0.0 | 0.00 | 0.00 | 0.00 | 86 | 1020.8 |
| 20260507232604 | 30 | 228 | 0.0 | 1.7 | 0.00 | 0.00 | 0.00 | 85 | 1020.8 |
| 20260507232105 | 30 | 228 | 0.0 | 0.9 | 0.00 | 0.00 | 0.00 | 85 | 1020.8 |
| 20260507231605 | 30 | 228 | 0.0 | 0.0 | 0.00 | 0.00 | 0.00 | 85 | 1020.8 |
| 20260507231104 | 31 | 221 | 0.0 | 0.0 | 0.00 | 0.00 | 0.00 | 85 | 1020.8 |
| 20260507230604 | 31 | 221 | 0.0 | 0.0 | 0.00 | 0.00 | 0.00 | 85 | 1020.8 |
| 20260507230105 | 31 | 221 | 0.0 | 0.0 | 0.00 | 0.00 | 0.00 | 84 | 1020.8 |
| 20260507225604 | 31 | 221 | 0.0 | 0.0 | 0.00 | 0.00 | 0.00 | 84 | 1020.8 |
| 20260507225105 | 31 | 221 | 0.0 | 0.0 | 0.00 | 0.00 | 0.00 | 84 | 1020.8 |
| 20260507224604 | 31 | 221 | 0.0 | 0.0 | 0.00 | 0.00 | 0.00 | 84 | 1020.8 |
| 20260507224104 | 31 | 221 | 0.0 | 0.0 | 0.00 | 0.00 | 0.00 | 84 | 1020.8 |
| 20260507223604 | 31 | 221 | 0.0 | 0.0 | 0.00 | 0.00 | 0.00 | 84 | 1020.8 |
| 20260507223104 | 31 | 221 | 0.0 | 0.0 | 0.00 | 0.00 | 0.00 | 84 | 1020.7 |
| 20260507222605 | 31 | 221 | 0.0 | 0.0 | 0.00 | 0.00 | 0.00 | 84 | 1020.7 |
| 20260507222104 | 31 | 221 | 0.0 | 0.0 | 0.00 | 0.00 | 0.00 | 83 | 1020.7 |
| 20260507221604 | 32 | 221 | 0.0 | 0.0 | 0.00 | 0.00 | 0.00 | 82 | 1020.6 |
| 20260507221105 | 32 | 221 | 0.0 | 0.0 | 0.00 | 0.00 | 0.00 | 82 | 1020.6 |
| 20260507220605 | 32 | 221 | 0.0 | 0.0 | 0.00 | 0.00 | 0.00 | 81 | 1020.6 |
| 20260507220104 | 32 | 221 | 0.0 | 0.0 | 0.00 | 0.00 | 0.00 | 81 | 1020.6 |
| 20260507215604 | 32 | 221 | 0.0 | 0.0 | 0.00 | 0.00 | 0.00 | 82 | 1020.6 |
| 20260507214104 | 33 | 221 | 0.0 | 0.0 | 0.00 | 0.00 | 0.00 | 80 | 1020.6 |
| 20260507213604 | 33 | 221 | 0.0 | 0.0 | 0.00 | 0.00 | 0.00 | 80 | 1020.6 |
| 20260507213105 | 33 | 221 | 0.0 | 0.0 | 0.00 | 0.00 | 0.00 | 80 | 1020.6 |
| 20260507212605 | 33 | 221 | 0.0 | 0.0 | 0.00 | 0.00 | 0.00 | 79 | 1020.5 |
| 20260507212104 | 34 | 221 | 0.0 | 0.0 | 0.00 | 0.00 | 0.00 | 79 | 1020.5 |
| 20260507211604 | 34 | 221 | 0.0 | 0.0 | 0.00 | 0.00 | 0.00 | 78 | 1020.6 |
| 20260507211105 | 34 | 221 | 0.0 | 0.0 | 0.00 | 0.00 | 0.00 | 77 | 1020.6 |
| 20260507210604 | 34 | 221 | 0.0 | 0.0 | 0.00 | 0.00 | 0.00 | 77 | 1020.5 |
| 20260507210104 | 34 | 221 | 0.0 | 0.0 | 0.00 | 0.00 | 0.00 | 77 | 1020.5 |
| 20260507205105 | 35 | 221 | 0.0 | 0.0 | 0.00 | 0.00 | 0.00 | 75 | 1020.5 |
| 20260507204604 | 35 | 221 | 0.0 | 0.0 | 0.00 | 0.00 | 0.00 | 75 | 1020.4 |
| 20260507204104 | 35 | 221 | 0.0 | 0.0 | 0.00 | 0.00 | 0.00 | 74 | 1020.4 |
| 20260507203604 | 35 | 221 | 0.0 | 0.0 | 0.00 | 0.00 | 0.00 | 73 | 1020.3 |
| 20260507203104 | 36 | 221 | 0.0 | 0.0 | 0.00 | 0.00 | 0.00 | 73 | 1020.2 |
| 20260507202604 | 36 | 221 | 0.0 | 0.0 | 0.00 | 0.00 | 0.00 | 73 | 1020.2 |
| 20260507202104 | 36 | 221 | 0.0 | 0.0 | 0.00 | 0.00 | 0.00 | 72 | 1020.1 |
| 20260507201605 | 37 | 221 | 0.0 | 0.0 | 0.00 | 0.00 | 0.00 | 72 | 1020.1 |
| 20260507201104 | 37 | 221 | 0.0 | 0.0 | 0.00 | 0.00 | 0.00 | 71 | 1020.0 |
| 20260507200604 | 37 | 221 | 0.0 | 0.0 | 0.00 | 0.00 | 0.00 | 71 | 1019.9 |
| 20260507200105 | 37 | 221 | 0.0 | 0.0 | 0.00 | 0.00 | 0.00 | 70 | 1019.8 |
| 20260507195604 | 38 | 221 | 0.0 | 0.0 | 0.00 | 0.00 | 0.00 | 69 | 1019.8 |
| 20260507195104 | 38 | 221 | 0.0 | 0.0 | 0.00 | 0.00 | 0.00 | 69 | 1019.7 |
| 20260507194605 | 39 | 221 | 0.0 | 0.0 | 0.00 | 0.00 | 0.00 | 68 | 1019.7 |
| 20260507194104 | 39 | 221 | 0.0 | 0.0 | 0.00 | 0.00 | 0.00 | 67 | 1019.6 |
| 20260507193605 | 39 | 221 | 0.0 | 0.0 | 0.00 | 0.00 | 0.00 | 66 | 1019.5 |
| 20260507193105 | 40 | 221 | 0.0 | 0.0 | 0.00 | 0.00 | 0.00 | 65 | 1019.4 |
| 20260507192105 | 40 | 221 | 0.0 | 0.0 | 0.00 | 0.00 | 0.00 | 63 | 1019.2 |
| 20260507191104 | 41 | 221 | 0.0 | 0.0 | 0.00 | 0.00 | 0.00 | 63 | 1019.1 |
| 20260507190605 | 41 | 221 | 0.0 | 0.0 | 0.00 | 0.00 | 0.00 | 61 | 1019.1 |
| 20260507185604 | 42 | 221 | 0.0 | 0.0 | 0.00 | 0.00 | 0.00 | 60 | 1019.0 |
| 20260507185105 | 43 | 221 | 0.0 | 0.0 | 0.00 | 0.00 | 0.00 | 58 | 1019.0 |
| 20260507184604 | 43 | 221 | 0.0 | 0.0 | 0.00 | 0.00 | 0.00 | 57 | 1018.9 |
| 20260507184105 | 44 | 221 | 0.0 | 0.0 | 0.00 | 0.00 | 0.00 | 55 | 1018.9 |
| 20260507183605 | 44 | 221 | 0.0 | 0.9 | 0.00 | 0.00 | 0.00 | 53 | 1018.9 |
| 20260507182105 | 46 | 221 | 1.7 | 4.3 | 0.00 | 0.00 | 0.00 | 49 | 1018.8 |
| 20260507181604 | 46 | 222 | 1.7 | 4.3 | 0.00 | 0.00 | 0.00 | 49 | 1018.7 |
| 20260507180604 | 46 | 224 | 1.7 | 2.6 | 0.00 | 0.00 | 0.00 | 47 | 1018.6 |
| 20260507174604 | 49 | 197 | 1.7 | 5.2 | 0.00 | 0.00 | 0.00 | 42 | 1018.5 |
| 20260507174104 | 49 | 224 | 1.7 | 4.3 | 0.00 | 0.00 | 0.00 | 43 | 1018.5 |
| 20260507173104 | 49 | 217 | 4.3 | 6.1 | 0.00 | 0.00 | 0.00 | 43 | 1018.5 |
| 20260507172105 | 49 | 197 | 1.7 | 6.1 | 0.00 | 0.00 | 0.00 | 41 | 1018.5 |
| 20260507171604 | 50 | 221 | 2.6 | 7.0 | 0.00 | 0.00 | 0.00 | 40 | 1018.5 |
| 20260507171105 | 50 | 178 | 2.6 | 6.1 | 0.00 | 0.00 | 0.00 | 40 | 1018.5 |
| 20260507170604 | 50 | 217 | 0.9 | 6.1 | 0.00 | 0.00 | 0.00 | 39 | 1018.5 |
| 20260507170105 | 50 | 232 | 1.7 | 5.2 | 0.00 | 0.00 | 0.00 | 40 | 1018.5 |
| 20260507165605 | 50 | 233 | 2.6 | 6.1 | 0.00 | 0.00 | 0.00 | 38 | 1018.5 |
| 20260507165104 | 51 | 235 | 2.6 | 6.1 | 0.00 | 0.00 | 0.00 | 38 | 1018.6 |
| 20260507164604 | 50 | 180 | 2.6 | 7.0 | 0.00 | 0.00 | 0.00 | 36 | 1018.5 |
| 20260507163604 | 50 | 168 | 2.6 | 6.1 | 0.00 | 0.00 | 0.00 | 36 | 1018.5 |
| 20260507163105 | 51 | 185 | 1.7 | 4.3 | 0.00 | 0.00 | 0.00 | 35 | 1018.5 |
| 20260507162604 | 51 | 227 | 3.5 | 7.0 | 0.00 | 0.00 | 0.00 | 35 | 1018.5 |
| 20260507161604 | 51 | 241 | 3.5 | 7.8 | 0.00 | 0.00 | 0.00 | 34 | 1018.4 |
| 20260507160605 | 51 | 238 | 1.7 | 7.0 | 0.00 | 0.00 | 0.00 | 32 | 1018.4 |
| 20260507160104 | 51 | 241 | 1.7 | 5.2 | 0.00 | 0.00 | 0.00 | 31 | 1018.4 |
| 20260507155604 | 51 | 230 | 4.3 | 8.7 | 0.00 | 0.00 | 0.00 | 33 | 1018.4 |
| 20260507155105 | 51 | 241 | 2.6 | 6.1 | 0.00 | 0.00 | 0.00 | 31 | 1018.4 |
| 20260507154604 | 51 | 259 | 2.6 | 10.4 | 0.00 | 0.00 | 0.00 | 30 | 1018.4 |
| 20260507153604 | 52 | 208 | 2.6 | 7.0 | 0.00 | 0.00 | 0.00 | 30 | 1018.4 |
| 20260507153104 | 52 | 230 | 1.7 | 2.6 | 0.00 | 0.00 | 0.00 | 30 | 1018.4 |
| 20260507152605 | 52 | 227 | 2.6 | 5.2 | 0.00 | 0.00 | 0.00 | 31 | 1018.4 |
| 20260507152104 | 52 | 183 | 1.7 | 5.2 | 0.00 | 0.00 | 0.00 | 31 | 1018.4 |
| 20260507151604 | 52 | 200 | 2.6 | 6.1 | 0.00 | 0.00 | 0.00 | 31 | 1018.4 |
| 20260507151104 | 51 | 269 | 2.6 | 7.0 | 0.00 | 0.00 | 0.00 | 31 | 1018.5 |
| 20260507150604 | 51 | 240 | 3.5 | 6.1 | 0.00 | 0.00 | 0.00 | 32 | 1018.5 |
| 20260507145105 | 52 | 246 | 5.2 | 10.4 | 0.00 | 0.00 | 0.00 | 33 | 1018.6 |
| 20260507143604 | 51 | 226 | 3.5 | 6.1 | 0.00 | 0.00 | 0.00 | 32 | 1018.5 |
| 20260507143104 | 51 | 219 | 1.7 | 5.2 | 0.00 | 0.00 | 0.00 | 32 | 1018.6 |
| 20260507142604 | 51 | 228 | 3.5 | 12.2 | 0.00 | 0.00 | 0.00 | 32 | 1018.6 |
| 20260507142104 | 51 | 224 | 2.6 | 7.8 | 0.00 | 0.00 | 0.00 | 32 | 1018.6 |
| 20260507141104 | 51 | 229 | 0.9 | 8.7 | 0.00 | 0.00 | 0.00 | 32 | 1018.7 |
| 20260507140604 | 51 | 216 | 5.2 | 10.4 | 0.00 | 0.00 | 0.00 | 30 | 1018.8 |
| 20260507140104 | 50 | 201 | 0.9 | 7.8 | 0.00 | 0.00 | 0.00 | 30 | 1018.8 |
| 20260507135604 | 51 | 231 | 4.3 | 8.7 | 0.00 | 0.00 | 0.00 | 31 | 1018.7 |
| 20260507135104 | 51 | 292 | 2.6 | 5.2 | 0.00 | 0.00 | 0.00 | 30 | 1018.7 |
| 20260507134604 | 51 | 238 | 7.0 | 11.3 | 0.00 | 0.00 | 0.00 | 31 | 1018.8 |
| 20260507134104 | 51 | 241 | 2.6 | 7.0 | 0.00 | 0.00 | 0.00 | 31 | 1018.8 |
| 20260507133605 | 51 | 283 | 1.7 | 2.6 | 0.00 | 0.00 | 0.00 | 29 | 1018.8 |
| 20260507133104 | 50 | 205 | 1.7 | 7.0 | 0.00 | 0.00 | 0.00 | 31 | 1018.8 |
| 20260507132606 | 50 | 247 | 6.1 | 13.0 | 0.00 | 0.00 | 0.00 | 31 | 1018.9 |
| 20260507132104 | 50 | 219 | 7.0 | 11.3 | 0.00 | 0.00 | 0.00 | 32 | 1018.8 |
| 20260507131605 | 50 | 258 | 0.9 | 6.1 | 0.00 | 0.00 | 0.00 | 32 | 1018.9 |
| 20260507131104 | 51 | 225 | 6.1 | 8.7 | 0.00 | 0.00 | 0.00 | 34 | 1018.9 |
| 20260507130605 | 50 | 249 | 2.6 | 7.0 | 0.00 | 0.00 | 0.00 | 31 | 1018.9 |
| 20260507130104 | 51 | 302 | 2.6 | 5.2 | 0.00 | 0.00 | 0.00 | 29 | 1018.7 |
| 20260507125605 | 51 | 207 | 0.0 | 2.6 | 0.00 | 0.00 | 0.00 | 30 | 1018.8 |
| 20260507124604 | 50 | 189 | 1.7 | 11.3 | 0.00 | 0.00 | 0.00 | 33 | 1018.9 |
| 20260507124104 | 50 | 243 | 7.0 | 11.3 | 0.00 | 0.00 | 0.00 | 33 | 1018.9 |
| 20260507123605 | 50 | 247 | 2.6 | 5.2 | 0.00 | 0.00 | 0.00 | 31 | 1018.8 |
| 20260507123104 | 50 | 268 | 2.6 | 6.1 | 0.00 | 0.00 | 0.00 | 29 | 1018.9 |
| 20260507122604 | 51 | 142 | 7.0 | 10.4 | 0.00 | 0.00 | 0.00 | 29 | 1018.9 |
| 20260507122104 | 50 | 321 | 0.9 | 2.6 | 0.00 | 0.00 | 0.00 | 30 | 1018.9 |
| 20260507121105 | 50 | 199 | 4.3 | 7.8 | 0.00 | 0.00 | 0.00 | 30 | 1019.0 |
| 20260507120604 | 52 | 180 | 4.3 | 11.3 | 0.00 | 0.00 | 0.00 | 31 | 1018.9 |
| 20260507120104 | 51 | 308 | 1.7 | 7.8 | 0.00 | 0.00 | 0.00 | 30 | 1018.9 |
| 20260507115604 | 50 | 72 | 3.5 | 8.7 | 0.00 | 0.00 | 0.00 | 32 | 1018.9 |
| 20260507115104 | 49 | 184 | 1.7 | 10.4 | 0.00 | 0.00 | 0.00 | 29 | 1018.9 |
| 20260507114604 | 49 | 146 | 4.3 | 7.8 | 0.00 | 0.00 | 0.00 | 31 | 1018.9 |
| 20260507114104 | 48 | 59 | 0.9 | 6.1 | 0.00 | 0.00 | 0.00 | 32 | 1018.9 |
| 20260507113605 | 48 | 310 | 3.5 | 6.1 | 0.00 | 0.00 | 0.00 | 31 | 1018.8 |
| 20260507113105 | 48 | 267 | 0.9 | 10.4 | 0.00 | 0.00 | 0.00 | 32 | 1018.9 |
| 20260507112604 | 49 | 214 | 7.0 | 10.4 | 0.00 | 0.00 | 0.00 | 35 | 1018.9 |
| 20260507111605 | 50 | 331 | 4.3 | 8.7 | 0.00 | 0.00 | 0.00 | 29 | 1019.0 |
| 20260507110604 | 49 | 146 | 0.9 | 8.7 | 0.00 | 0.00 | 0.00 | 30 | 1019.1 |
| 20260507110104 | 49 | 42 | 1.7 | 6.1 | 0.00 | 0.00 | 0.00 | 31 | 1019.2 |
| 20260507105604 | 49 | 44 | 4.3 | 8.7 | 0.00 | 0.00 | 0.00 | 31 | 1019.2 |
| 20260507105104 | 49 | 70 | 4.3 | 7.8 | 0.00 | 0.00 | 0.00 | 31 | 1019.1 |
| 20260507104605 | 48 | 25 | 1.7 | 7.8 | 0.00 | 0.00 | 0.00 | 32 | 1019.1 |
| 20260507104104 | 48 | 68 | 3.5 | 7.8 | 0.00 | 0.00 | 0.00 | 32 | 1019.1 |
| 20260507103604 | 49 | 355 | 0.9 | 8.7 | 0.00 | 0.00 | 0.00 | 33 | 1019.1 |
| 20260507103104 | 49 | 91 | 2.6 | 8.7 | 0.00 | 0.00 | 0.00 | 33 | 1019.1 |
| 20260507102605 | 48 | 43 | 2.6 | 10.4 | 0.00 | 0.00 | 0.00 | 34 | 1019.1 |
| 20260507102104 | 47 | 100 | 2.6 | 7.8 | 0.00 | 0.00 | 0.00 | 36 | 1019.1 |
| 20260507101104 | 47 | 0 | 1.7 | 10.4 | 0.00 | 0.00 | 0.00 | 34 | 1019.1 |
| 20260507100604 | 48 | 354 | 5.2 | 7.8 | 0.00 | 0.00 | 0.00 | 32 | 1019.1 |
| 20260507100104 | 48 | 26 | 2.6 | 6.1 | 0.00 | 0.00 | 0.00 | 33 | 1019.1 |
| 20260507095604 | 47 | 300 | 0.9 | 5.2 | 0.00 | 0.00 | 0.00 | 35 | 1019.0 |
| 20260507095104 | 47 | 24 | 1.7 | 7.0 | 0.00 | 0.00 | 0.00 | 34 | 1019.1 |
| 20260507094104 | 46 | 105 | 4.3 | 7.8 | 0.00 | 0.00 | 0.00 | 35 | 1019.0 |
| 20260507093604 | 47 | 338 | 4.3 | 7.0 | 0.00 | 0.00 | 0.00 | 36 | 1019.1 |
| 20260507093104 | 47 | 136 | 2.6 | 7.8 | 0.00 | 0.00 | 0.00 | 35 | 1019.0 |
| 20260507092604 | 47 | 59 | 3.5 | 7.0 | 0.00 | 0.00 | 0.00 | 37 | 1019.1 |
| 20260507092104 | 46 | 45 | 1.7 | 4.3 | 0.00 | 0.00 | 0.00 | 39 | 1019.0 |
| 20260507091604 | 45 | 108 | 0.9 | 7.0 | 0.00 | 0.00 | 0.00 | 37 | 1019.0 |
| 20260507091105 | 46 | 6 | 4.3 | 7.8 | 0.00 | 0.00 | 0.00 | 36 | 1019.1 |
| 20260507090604 | 46 | 147 | 2.6 | 5.2 | 0.00 | 0.00 | 0.00 | 39 | 1019.0 |
| 20260507090105 | 45 | 67 | 1.7 | 7.0 | 0.00 | 0.00 | 0.00 | 39 | 1019.0 |
| 20260507085604 | 44 | 123 | 1.7 | 6.1 | 0.00 | 0.00 | 0.00 | 42 | 1019.0 |
| 20260507085105 | 44 | 204 | 1.7 | 2.6 | 0.00 | 0.00 | 0.00 | 39 | 1018.9 |
| 20260507084604 | 44 | 113 | 0.0 | 4.3 | 0.00 | 0.00 | 0.00 | 39 | 1019.0 |
| 20260507084104 | 44 | 115 | 0.0 | 4.3 | 0.00 | 0.00 | 0.00 | 40 | 1019.0 |
| 20260507083605 | 44 | 95 | 1.7 | 4.3 | 0.00 | 0.00 | 0.00 | 39 | 1019.0 |
| 20260507083104 | 44 | 61 | 0.0 | 1.7 | 0.00 | 0.00 | 0.00 | 43 | 1019.0 |
| 20260507082604 | 43 | 60 | 0.9 | 5.2 | 0.00 | 0.00 | 0.00 | 42 | 1019.0 |
| 20260507081104 | 41 | 238 | 0.0 | 1.7 | 0.00 | 0.00 | 0.00 | 46 | 1019.0 |
| 20260507080604 | 41 | 238 | 0.0 | 2.6 | 0.00 | 0.00 | 0.00 | 47 | 1018.9 |
| 20260507080105 | 40 | 238 | 0.9 | 2.6 | 0.00 | 0.00 | 0.00 | 47 | 1018.9 |
| 20260507075604 | 41 | 187 | 0.0 | 0.9 | 0.00 | 0.00 | 0.00 | 48 | 1018.9 |
| 20260507074604 | 40 | 189 | 0.0 | 1.7 | 0.00 | 0.00 | 0.00 | 52 | 1018.8 |
| 20260507074105 | 40 | 189 | 0.9 | 2.6 | 0.00 | 0.00 | 0.00 | 53 | 1018.8 |
| 20260507073605 | 39 | 189 | 0.0 | 2.6 | 0.00 | 0.00 | 0.00 | 54 | 1018.8 |
| 20260507073104 | 39 | 190 | 1.7 | 2.6 | 0.00 | 0.00 | 0.00 | 54 | 1018.8 |
| 20260507072605 | 39 | 198 | 0.0 | 2.6 | 0.00 | 0.00 | 0.00 | 59 | 1018.8 |
| 20260507072104 | 38 | 198 | 0.9 | 2.6 | 0.00 | 0.00 | 0.00 | 58 | 1018.8 |
| 20260507071604 | 38 | 238 | 0.9 | 2.6 | 0.00 | 0.00 | 0.00 | 60 | 1018.8 |
| 20260507071104 | 38 | 264 | 0.0 | 1.7 | 0.00 | 0.00 | 0.00 | 59 | 1018.8 |
| 20260507070605 | 37 | 265 | 0.9 | 2.6 | 0.00 | 0.00 | 0.00 | 60 | 1018.7 |
| 20260507070104 | 37 | 266 | 0.0 | 1.7 | 0.00 | 0.00 | 0.00 | 62 | 1018.7 |
| 20260507065105 | 37 | 266 | 0.0 | 1.7 | 0.00 | 0.00 | 0.00 | 65 | 1018.8 |
| 20260507064604 | 37 | 266 | 0.0 | 0.0 | 0.00 | 0.00 | 0.00 | 66 | 1018.7 |
| 20260507064104 | 36 | 266 | 0.0 | 0.0 | 0.00 | 0.00 | 0.00 | 68 | 1018.7 |
| 20260507063605 | 35 | 266 | 0.0 | 0.0 | 0.00 | 0.00 | 0.00 | 71 | 1018.7 |
| 20260507063104 | 34 | 266 | 0.0 | 0.0 | 0.00 | 0.00 | 0.00 | 72 | 1018.7 |
| 20260507062604 | 33 | 266 | 0.0 | 0.0 | 0.00 | 0.00 | 0.00 | 72 | 1018.8 |
| 20260507062105 | 33 | 266 | 0.0 | 0.0 | 0.00 | 0.00 | 0.00 | 75 | 1018.7 |
| 20260507061605 | 32 | 266 | 0.0 | 0.0 | 0.00 | 0.00 | 0.00 | 77 | 1018.7 |
| 20260507061104 | 31 | 266 | 0.0 | 0.0 | 0.00 | 0.00 | 0.00 | 77 | 1018.7 |
| 20260507060604 | 31 | 266 | 0.0 | 0.0 | 0.00 | 0.00 | 0.00 | 79 | 1018.7 |
| 20260507060105 | 31 | 266 | 0.0 | 0.0 | 0.00 | 0.00 | 0.00 | 80 | 1018.7 |
| 20260507055104 | 30 | 266 | 0.0 | 0.0 | 0.00 | 0.00 | 0.00 | 83 | 1018.7 |
| 20260507054104 | 29 | 266 | 0.0 | 0.0 | 0.00 | 0.00 | 0.00 | 87 | 1018.7 |
| 20260507053604 | 27 | 266 | 0.0 | 0.0 | 0.00 | 0.00 | 0.00 | 88 | 1018.7 |
| 20260507052604 | 26 | 266 | 0.0 | 0.0 | 0.00 | 0.00 | 0.00 | 90 | 1018.7 |
| 20260507051605 | 24 | 266 | 0.0 | 0.0 | 0.00 | 0.00 | 0.00 | 91 | 1018.7 |
| 20260507050604 | 23 | 266 | 0.0 | 0.0 | 0.00 | 0.00 | 0.00 | 90 | 1018.7 |
| 20260507045604 | 22 | 266 | 0.0 | 0.0 | 0.00 | 0.00 | 0.00 | 90 | 1018.7 |
| 20260507045104 | 22 | 266 | 0.0 | 0.0 | 0.00 | 0.00 | 0.00 | 90 | 1018.7 |
| 20260507044604 | 22 | 266 | 0.0 | 0.0 | 0.00 | 0.00 | 0.00 | 90 | 1018.6 |
| 20260507044104 | 22 | 266 | 0.0 | 0.0 | 0.00 | 0.00 | 0.00 | 90 | 1018.5 |
| 20260507043604 | 22 | 266 | 0.0 | 0.0 | 0.00 | 0.00 | 0.00 | 90 | 1018.5 |
| 20260507043104 | 22 | 266 | 0.0 | 0.0 | 0.00 | 0.00 | 0.00 | 90 | 1018.5 |
| 20260507042605 | 22 | 266 | 0.0 | 0.0 | 0.00 | 0.00 | 0.00 | 90 | 1018.4 |
| 20260507042104 | 22 | 266 | 0.0 | 0.0 | 0.00 | 0.00 | 0.00 | 90 | 1018.4 |
| 20260507041604 | 22 | 266 | 0.0 | 0.0 | 0.00 | 0.00 | 0.00 | 90 | 1018.4 |
| 20260507041104 | 22 | 266 | 0.0 | 0.0 | 0.00 | 0.00 | 0.00 | 90 | 1018.4 |
| 20260507035604 | 21 | 266 | 0.0 | 0.0 | 0.00 | 0.00 | 0.00 | 90 | 1018.3 |
| 20260507035104 | 21 | 266 | 0.0 | 0.0 | 0.00 | 0.00 | 0.00 | 90 | 1018.3 |
| 20260507034605 | 21 | 266 | 0.0 | 0.0 | 0.00 | 0.00 | 0.00 | 90 | 1018.2 |
| 20260507034104 | 21 | 266 | 0.0 | 0.0 | 0.00 | 0.00 | 0.00 | 90 | 1018.2 |
| 20260507033604 | 21 | 266 | 0.0 | 0.0 | 0.00 | 0.00 | 0.00 | 89 | 1018.1 |
| 20260507033105 | 22 | 266 | 0.0 | 0.0 | 0.00 | 0.00 | 0.00 | 90 | 1018.1 |
| 20260507032104 | 22 | 266 | 0.0 | 0.0 | 0.00 | 0.00 | 0.00 | 90 | 1018.1 |
| 20260507031605 | 22 | 266 | 0.0 | 0.0 | 0.00 | 0.00 | 0.00 | 89 | 1018.1 |
| 20260507031104 | 22 | 266 | 0.0 | 0.0 | 0.00 | 0.00 | 0.00 | 90 | 1018.1 |
| 20260507030604 | 22 | 265 | 0.0 | 0.0 | 0.00 | 0.00 | 0.00 | 90 | 1018.1 |
| 20260507025104 | 22 | 266 | 0.0 | 0.0 | 0.00 | 0.00 | 0.00 | 90 | 1018.0 |
| 20260507024605 | 22 | 266 | 0.0 | 0.0 | 0.00 | 0.00 | 0.00 | 89 | 1017.9 |
| 20260507024104 | 22 | 265 | 0.0 | 0.0 | 0.00 | 0.00 | 0.00 | 89 | 1018.0 |
| 20260507023604 | 22 | 266 | 0.0 | 0.0 | 0.00 | 0.00 | 0.00 | 90 | 1017.9 |
| 20260507022604 | 22 | 266 | 0.0 | 0.0 | 0.00 | 0.00 | 0.00 | 89 | 1017.8 |
| 20260507022105 | 22 | 265 | 0.0 | 0.0 | 0.00 | 0.00 | 0.00 | 89 | 1017.8 |
| 20260507021605 | 22 | 266 | 0.0 | 0.0 | 0.00 | 0.00 | 0.00 | 89 | 1017.8 |
| 20260507021104 | 22 | 266 | 0.0 | 0.0 | 0.00 | 0.00 | 0.00 | 89 | 1017.8 |
| 20260507020605 | 23 | 266 | 0.0 | 0.0 | 0.00 | 0.00 | 0.00 | 89 | 1017.8 |
| 20260507020105 | 23 | 266 | 0.0 | 0.0 | 0.00 | 0.00 | 0.00 | 89 | 1017.7 |
| 20260507015604 | 23 | 266 | 0.0 | 0.0 | 0.00 | 0.00 | 0.00 | 89 | 1017.7 |
| 20260507014605 | 23 | 266 | 0.0 | 0.0 | 0.00 | 0.00 | 0.00 | 89 | 1017.7 |
| 20260507014104 | 23 | 266 | 0.0 | 0.0 | 0.00 | 0.00 | 0.00 | 89 | 1017.7 |
| 20260507013604 | 23 | 266 | 0.0 | 0.0 | 0.00 | 0.00 | 0.00 | 89 | 1017.7 |
| 20260507013105 | 23 | 266 | 0.0 | 0.0 | 0.00 | 0.00 | 0.00 | 89 | 1017.7 |
| 20260507012604 | 23 | 266 | 0.0 | 0.0 | 0.00 | 0.00 | 0.00 | 89 | 1017.7 |
| 20260507011604 | 23 | 266 | 0.0 | 0.0 | 0.00 | 0.00 | 0.00 | 87 | 1017.6 |